Time,TemperatureF,DewpointF,PressureIn,WindDirection,WindDirectionDegrees,WindSpeedMPH,WindSpeedGustMPH,Humidity,HourlyPrecipIn,Conditions,Clouds,dailyrainin,SolarRadiationWatts/m^2,SoftwareType,DateUTC
2013-07-08 00:00:00,72.0,67.0,-100.00,SW,225,0.0,-999.0,83,-99.99,,,-99.99,0.000000,,2013-07-08 04:00:00,
2013-07-08 00:42:00,72.0,67.0,-100.00,SW,225,0.0,-999.0,83,-99.99,,,-99.99,0.000000,,2013-07-08 04:42:00,
2013-07-08 00:53:00,72.0,67.0,-100.00,SW,225,0.0,-999.0,83,-99.99,,,-99.99,0.000000,,2013-07-08 04:53:00,
2013-07-08 01:00:00,72.0,67.0,-100.00,SSW,202,1.0,-999.0,84,-99.99,,,-99.99,0.000000,,2013-07-08 05:00:00,
2013-07-08 01:43:00,72.0,67.0,-100.00,SSW,202,1.0,-999.0,84,-99.99,,,-99.99,0.000000,,2013-07-08 05:43:00,
2013-07-08 01:53:00,72.0,67.0,-100.00,SSW,202,1.0,-999.0,84,-99.99,,,-99.99,0.000000,,2013-07-08 05:53:00,
2013-07-08 02:00:00,72.0,67.0,-100.00,SSW,202,1.0,-999.0,84,-99.99,,,-99.99,0.000000,,2013-07-08 06:00:00,
2013-07-08 02:43:00,72.0,67.0,-100.00,SSW,202,1.0,-999.0,84,-99.99,,,-99.99,0.000000,,2013-07-08 06:43:00,
2013-07-08 02:53:00,72.0,67.0,-100.00,SSW,202,1.0,-999.0,84,-99.99,,,-99.99,0.000000,,2013-07-08 06:53:00,
2013-07-08 03:00:00,72.0,68.0,-100.00,SW,225,2.0,-999.0,86,-99.99,,,-99.99,0.000000,,2013-07-08 07:00:00,
2013-07-08 03:44:00,72.0,68.0,-100.00,SW,225,2.0,-999.0,86,-99.99,,,-99.99,0.000000,,2013-07-08 07:44:00,
2013-07-08 03:53:00,72.0,68.0,-100.00,SW,225,2.0,-999.0,86,-99.99,,,-99.99,0.000000,,2013-07-08 07:53:00,
2013-07-08 04:00:00,73.0,68.0,-100.00,SSE,157,1.0,-999.0,86,-99.99,,,-99.99,0.000000,,2013-07-08 08:00:00,
2013-07-08 04:42:00,73.0,68.0,-100.00,SSE,157,1.0,-999.0,86,-99.99,,,-99.99,0.000000,,2013-07-08 08:42:00,
2013-07-08 04:53:00,73.0,68.0,-100.00,SSE,157,1.0,-999.0,86,-99.99,,,-99.99,0.000000,,2013-07-08 08:53:00,
2013-07-08 05:00:00,71.0,68.0,-100.00,ESE,112,1.0,-999.0,88,-99.99,,,-99.99,0.000000,,2013-07-08 09:00:00,
2013-07-08 05:43:00,71.0,68.0,-100.00,ESE,112,1.0,-999.0,88,-99.99,,,-99.99,0.000000,,2013-07-08 09:43:00,
2013-07-08 05:53:00,71.0,68.0,-100.00,ESE,112,1.0,-999.0,88,-99.99,,,-99.99,0.000000,,2013-07-08 09:53:00,
2013-07-08 06:00:00,70.0,67.0,-100.00,SSE,157,0.0,-999.0,91,-99.99,,,-99.99,0.000000,,2013-07-08 10:00:00,
2013-07-08 06:43:00,70.0,67.0,-100.00,SSE,157,0.0,-999.0,91,-99.99,,,-99.99,0.000000,,2013-07-08 10:43:00,
2013-07-08 06:53:00,70.0,67.0,-100.00,SSE,157,0.0,-999.0,91,-99.99,,,-99.99,0.000000,,2013-07-08 10:53:00,
2013-07-08 07:00:00,70.0,68.0,-100.00,South,180,1.0,-999.0,92,-99.99,,,-99.99,8.120000,,2013-07-08 11:00:00,
2013-07-08 07:33:00,70.0,68.0,-100.00,South,180,1.0,-999.0,92,-99.99,,,-99.99,8.120000,,2013-07-08 11:33:00,
2013-07-08 07:43:00,70.0,68.0,-100.00,South,180,1.0,-999.0,92,-99.99,,,-99.99,8.120000,,2013-07-08 11:43:00,
2013-07-08 07:53:00,70.0,68.0,-100.00,South,180,1.0,-999.0,92,-99.99,,,-99.99,8.120000,,2013-07-08 11:53:00,
2013-07-08 08:00:00,72.0,69.0,-100.00,South,180,2.0,-999.0,90,-99.99,,,-99.99,60.320000,,2013-07-08 12:00:00,
2013-07-08 08:43:00,72.0,69.0,-100.00,South,180,2.0,-999.0,90,-99.99,,,-99.99,60.320000,,2013-07-08 12:43:00,
2013-07-08 08:53:00,72.0,69.0,-100.00,South,180,2.0,-999.0,90,-99.99,,,-99.99,60.320000,,2013-07-08 12:53:00,
2013-07-08 09:00:00,74.0,69.0,-100.00,South,180,3.0,-999.0,86,-99.99,,,-99.99,103.239998,,2013-07-08 13:00:00,
2013-07-08 09:43:00,74.0,69.0,-100.00,South,180,3.0,-999.0,86,-99.99,,,-99.99,103.239998,,2013-07-08 13:43:00,
2013-07-08 09:53:00,74.0,69.0,-100.00,South,180,3.0,-999.0,86,-99.99,,,-99.99,103.239998,,2013-07-08 13:53:00,
2013-07-08 10:00:00,75.0,69.0,-100.00,SSW,202,4.0,-999.0,83,-99.99,,,-99.99,119.480003,,2013-07-08 14:00:00,
2013-07-08 10:43:00,75.0,69.0,-100.00,SSW,202,4.0,-999.0,83,-99.99,,,-99.99,119.480003,,2013-07-08 14:43:00,
2013-07-08 10:53:00,75.0,69.0,-100.00,SSW,202,4.0,-999.0,83,-99.99,,,-99.99,119.480003,,2013-07-08 14:53:00,
2013-07-08 11:00:00,75.0,69.0,-100.00,WSW,247,6.0,-999.0,81,-99.99,,,-99.99,138.039993,,2013-07-08 15:00:00,
2013-07-08 11:43:00,75.0,69.0,-100.00,WSW,247,6.0,-999.0,81,-99.99,,,-99.99,138.039993,,2013-07-08 15:43:00,
2013-07-08 11:53:00,75.0,69.0,-100.00,WSW,247,6.0,-999.0,81,-99.99,,,-99.99,138.039993,,2013-07-08 15:53:00,
2013-07-08 12:00:00,73.0,68.0,-100.00,WSW,247,6.0,-999.0,83,-99.99,,,-99.99,156.600006,,2013-07-08 16:00:00,
2013-07-08 12:43:00,73.0,68.0,-100.00,WSW,247,6.0,-999.0,83,-99.99,,,-99.99,156.600006,,2013-07-08 16:43:00,
2013-07-08 12:58:00,73.0,68.0,-100.00,WSW,247,6.0,-999.0,83,-99.99,,,-99.99,156.600006,,2013-07-08 16:58:00,
2013-07-08 13:00:00,73.0,69.0,-100.00,SSW,202,5.0,-999.0,86,-99.99,,,-99.99,329.440002,,2013-07-08 17:00:00,
2013-07-08 13:55:00,73.0,69.0,-100.00,SSW,202,5.0,-999.0,86,-99.99,,,-99.99,329.440002,,2013-07-08 17:55:00,
2013-07-08 14:00:00,74.0,69.0,-100.00,SW,225,6.0,-999.0,81,-99.99,,,-99.99,284.200012,,2013-07-08 18:00:00,
2013-07-08 14:56:00,74.0,69.0,-100.00,SW,225,6.0,-999.0,81,-99.99,,,-99.99,284.200012,,2013-07-08 18:56:00,
2013-07-08 15:00:00,74.0,68.0,-100.00,SW,225,8.0,-999.0,80,-99.99,,,-99.99,140.360001,,2013-07-08 19:00:00,
2013-07-08 15:58:00,74.0,68.0,-100.00,SW,225,8.0,-999.0,80,-99.99,,,-99.99,140.360001,,2013-07-08 19:58:00,
2013-07-08 16:00:00,73.0,67.0,-100.00,SW,225,8.0,-999.0,79,-99.99,,,-99.99,176.320007,,2013-07-08 20:00:00,
2013-07-08 17:00:00,73.0,66.0,-100.00,SW,225,8.0,-999.0,77,-99.99,,,-99.99,192.559998,,2013-07-08 21:00:00,
2013-07-08 18:49:00,73.0,67.0,-100.00,WSW,247,5.0,-999.0,79,-99.99,,,-99.99,114.839996,,2013-07-08 22:49:00,
2013-07-08 19:00:00,74.0,67.0,-100.00,WSW,247,5.0,-999.0,79,-99.99,,,-99.99,176.320007,,2013-07-08 23:00:00,
2013-07-08 20:00:00,74.0,68.0,-100.00,WSW,247,5.0,-999.0,80,-99.99,,,-99.99,88.160004,,2013-07-09 00:00:00,
2013-07-08 21:00:00,74.0,67.0,-100.00,WSW,247,2.0,-999.0,81,-99.99,,,-99.99,49.880001,,2013-07-09 01:00:00,
2013-07-08 21:48:00,74.0,67.0,-100.00,WSW,247,2.0,-999.0,81,-99.99,,,-99.99,49.880001,,2013-07-09 01:48:00,
2013-07-08 22:00:00,71.0,67.0,-100.00,WNW,292,1.0,-999.0,85,-99.99,,,-99.99,3.480000,,2013-07-09 02:00:00,
2013-07-08 23:00:00,68.0,65.0,-100.00,South,180,0.0,-999.0,91,-99.99,,,-99.99,0.000000,,2013-07-09 03:00:00,